Retour au catalogue

SL-12 R/B(2)

ActifGEO
NORAD 26246·ROCKET BODY·🇷🇺 Russia

Lancé Apr 17, 2000 depuis Baikonur Cosmodrome

Loading…

TLE

FraisSource: Space-Track

Époque: Sep 14, 2026, 03:47 UTC

1 26246U 00019D   26257.15808520 -.00000352  00000-0  00000-0 0  9992
2 26246  14.7555   1.2050 0013988 315.0907 231.4028  0.99563684 95982

Suivez SL-12 R/B(2) en temps réel avec AllMySat

Download on the App Store